Location: El Águila
(10.4167°N, 66.7167°W)
Time: 05:25:00
(UTC+00:00)

Cosmos 2180 Rocket - Pass Details

Date: 02 October 2022
Orbit: 954 x 1004 km, 82.9° (Epoch: 26 November)

Event Time Altitude Azimuth Distance (km) Brightness Sun altitude
Rises 23:26:18 0° 356° (N) 3,682 7.6 -18.0°
Reaches altitude 10° 23:28:48 10° 356° (N) 2,741 6.9 -18.6°
Maximum altitude 23:35:07 89° 269° (W) 999 4.5 -20.1°
Drops below altitude 10° 23:41:29 10° 177° (S) 2,767 6.8 -21.7°
Sets 23:44:01 0° 177° (S) 3,719 7.5 -22.3°
